Terminal Aerodrome Forecast
Issued by NWS

Home | Current Version | Previous Version | Text Only | Print | Product List | Glossary On
Versions: 1 2 3 4 5 6 7 8 9 10 11 12 13 14 15 16 17 18 19 20 21
000
FTUS41 KCAR 281500 AAB
TAFBHB
TAF AMD
KBHB 281520Z 2815/2912 15007KT P6SM -SHRA OVC002
     FM281800 15010KT P6SM VCTS BKN007CB
     FM290200 16011KT 6SM BR BKN005
     FM290600 20011KT 2SM BR BKN005
      AMD LTD TO CLD VIS AND WIND=

USA.gov is the U.S. government's official web portal to all federal, state and local government web resources and services.